Погода в Гребенках

Украина / Киевская область     49°57′22″N   30°10′26″E
темп.,
°C
ветер,
м/с
пор.,
м/с
влажн.,
%
обл.,
%
осадки,
мм/ч
давл.,
гПа
погр.,
м
22 апреля, чт
чт2200:00+7юз47825 0.0 1015112
03:00+6юз488317 0.0 1015144
06:00+5юз37865 0.0 1016116
09:00+11юз586684 0.0 1017366
12:00+16ююз710505 0.0 10161843
15:00+16ююз6951100 0.1 10151281
18:00+15ю5105980 0.0 1015752
21:00+11ю6137089 0.0 1015306
23 апреля, пт
пт2300:00+8ююз349098 0.5 101557
03:00+8юз359091 0.5 1015103
06:00+5ссз4890100 0.0 1016324
09:00+5ссз4684100 0.5 1017453
12:00+8сз3566100 1.3 10171169
15:00+9зсз4651100 1.3 10171691
18:00+9зсз4654100 0.1 10161556
21:00+5з367551 0.3 1017139
24 апреля, сб
сб2400:00+3з38825 0.0 1017146
03:00+2з38850 0.0 1017167
06:00+1зюз4128859 0.0 1016306
09:00+2зсз8128395 1.0 10181028
12:00+5зсз91157100 0.6 10191877
15:00+7зсз8114585 0.6 10182442
18:00+7зсз6105457 0.1 10191894
21:00+3з48699 0.1 1021161
25 апреля, вс
вс2500:00+2зюз37745 0.0 1021125
03:00+1зюз36774 0.0 102194
06:000юз388090 0.0 1020143
09:00+3зюз61094100 1.1 1020594
12:00+4зсз4996100 0.6 1020705
15:00+7зсз576980 0.8 10191268
18:00+7сз566593 0.3 10181108
21:00+3сз368111 0.3 1020111
26 апреля, пн
пн2600:00+1зсз35834 0.0 102068
03:000з34844 0.0 102060
06:00−1зюз38875 0.0 1019144
09:00+5з586569 0.0 1018826
12:00+6зсз895999 1.1 10181820
15:00+7зсз7944100 1.8 10172419
18:00+6зсз795488 0.1 10181525
21:00+2зсз3870100 0.2 1019184